When you browse on this site, cookies collect data to enhance your experience and personalize the content and advertising you see.
Visit our Privacy Policy to learn more. By continuing to use the site, you agree to this use of cookies and data.
  • In Latvia
  • List of Countries
  • For 7 days
  • Water Temperature
  • Weather Map
  • Weather Widgets
  • user-avatar
    Login

    Hourly Weather Varfolomeevka

    Today, 17 November, Sunday

    Time Temperature Precipitation Wind Pressure Humidity
    00:00 -1°C° 0 mm 3 mps 777 mmHg 73%
    01:00 -1°C° 0 mm 3 mps 777 mmHg 76%
    02:00 -1°C° 0 mm 3 mps 777 mmHg 79%
    03:00 -2°C° 0 mm 3 mps 777 mmHg 82%
    04:00 -2°C° 0 mm 3 mps 777 mmHg 84%
    05:00 -2°C° 0 mm 3 mps 777 mmHg 86%
    06:00 -2°C° 0 mm 2 mps 776 mmHg 88%
    07:00 -2°C° 0 mm 2 mps 776 mmHg 84%
    08:00 -1°C° 0 mm 2 mps 777 mmHg 80%
    09:00 +1°C° 0 mm 2 mps 777 mmHg 77%
    10:00 +2°C° 0 mm 2 mps 776 mmHg 71%
    11:00 +3°C° 0 mm 3 mps 776 mmHg 65%
    12:00 +4°C° 0 mm 3 mps 776 mmHg 60%
    13:00 +4°C° 0 mm 3 mps 776 mmHg 59%
    14:00 +5°C° 0 mm 2 mps 775 mmHg 59%
    15:00 +6°C° 0 mm 2 mps 775 mmHg 58%
    16:00 +5°C° 0 mm 2 mps 775 mmHg 62%
    17:00 +4°C° 0 mm 2 mps 775 mmHg 66%
    18:00 +3°C° 0 mm 2 mps 774 mmHg 70%
    19:00 +3°C° 0 mm 2 mps 774 mmHg 71%
    20:00 +2°C° 0 mm 2 mps 774 mmHg 72%
    21:00 +2°C° 0 mm 2 mps 774 mmHg 73%
    22:00 +2°C° 0 mm 2 mps 774 mmHg 75%
    23:00 +1°C° 0 mm 2 mps 774 mmHg 76%

    Tomorrow, 18 November, Monday

    Time Temperature Precipitation Wind Pressure Humidity
    00:00 +1°C° 0 mm 2 mps 774 mmHg 78%
    01:00 +1°C° 0 mm 2 mps 774 mmHg 78%
    02:00 +1°C° 0 mm 2 mps 773 mmHg 79%
    03:00 -1°C° 0 mm 2 mps 773 mmHg 80%
    04:00 -1°C° 0 mm 2 mps 773 mmHg 82%
    05:00 -1°C° 0 mm 2 mps 773 mmHg 83%
    06:00 +1°C° 0 mm 1 mps 773 mmHg 85%
    07:00 +2°C° 0 mm 1 mps 773 mmHg 80%
    08:00 +3°C° 0 mm 1 mps 773 mmHg 75%
    09:00 +4°C° 0 mm 1 mps 773 mmHg 70%
    10:00 +4°C° 0 mm 2 mps 773 mmHg 64%
    11:00 +5°C° 0 mm 2 mps 772 mmHg 58%
    12:00 +6°C° 0 mm 2 mps 772 mmHg 53%
    13:00 +6°C° 0 mm 2 mps 771 mmHg 52%
    14:00 +7°C° 0 mm 2 mps 771 mmHg 51%
    15:00 +7°C° 0 mm 2 mps 771 mmHg 50%
    16:00 +6°C° 0 mm 2 mps 771 mmHg 54%
    17:00 +4°C° 0 mm 2 mps 770 mmHg 57%
    18:00 +3°C° 0 mm 2 mps 770 mmHg 60%
    19:00 +3°C° 0 mm 2 mps 770 mmHg 61%
    20:00 +3°C° 0 mm 2 mps 770 mmHg 62%
    21:00 +3°C° 0 mm 2 mps 770 mmHg 63%
    22:00 +2°C° 0 mm 2 mps 769 mmHg 64%
    23:00 +2°C° 0 mm 2 mps 769 mmHg 65%

    Day after tomorrow, 19 November, Tuesday

    Time Temperature Precipitation Wind Pressure Humidity
    00:00 +2°C° 0 mm 2 mps 769 mmHg 66%
    01:00 +2°C° 0 mm 2 mps 769 mmHg 67%
    02:00 +1°C° 0 mm 3 mps 769 mmHg 68%
    03:00 +1°C° 0 mm 3 mps 768 mmHg 69%
    04:00 +1°C° 0 mm 2 mps 768 mmHg 74%
    05:00 +1°C° 0 mm 2 mps 768 mmHg 79%
    06:00 +1°C° 0 mm 2 mps 768 mmHg 84%
    07:00 +1°C° 0 mm 2 mps 768 mmHg 83%
    08:00 +1°C° 0 mm 3 mps 768 mmHg 82%
    09:00 +1°C° 0 mm 3 mps 768 mmHg 82%
    10:00 +2°C° 0 mm 3 mps 768 mmHg 76%
    11:00 +3°C° 0 mm 3 mps 768 mmHg 70%
    12:00 +4°C° 0 mm 3 mps 768 mmHg 65%
    13:00 +4°C° 0 mm 3 mps 768 mmHg 66%
    14:00 +5°C° 0 mm 3 mps 768 mmHg 67%
    15:00 +5°C° 0 mm 3 mps 768 mmHg 68%
    16:00 +4°C° 0 mm 3 mps 768 mmHg 73%
    17:00 +4°C° 0 mm 4 mps 768 mmHg 78%
    18:00 +3°C° 0 mm 4 mps 768 mmHg 83%
    19:00 +4°C° 0 mm 4 mps 768 mmHg 80%
    20:00 +4°C° 0 mm 4 mps 769 mmHg 77%
    21:00 +3°C° 0 mm 5 mps 769 mmHg 74%
    22:00 +2°C° 0 mm 5 mps 769 mmHg 73%
    23:00 +1°C° 0 mm 5 mps 770 mmHg 71%

    20 November, Wednesday

    Time Temperature Precipitation Wind Pressure Humidity
    00:00 +1°C° 0 mm 5 mps 770 mmHg 69%
    01:00 -1°C° 0 mm 6 mps 770 mmHg 71%
    02:00 -2°C° 0 mm 6 mps 771 mmHg 72%
    03:00 -3°C° 0 mm 7 mps 772 mmHg 73%
    04:00 -6°C° 0 mm 7 mps 772 mmHg 71%
    05:00 -7°C° 0 mm 7 mps 773 mmHg 69%
    06:00 -9°C° 0 mm 7 mps 773 mmHg 66%
    07:00 -9°C° 0 mm 7 mps 774 mmHg 62%
    08:00 -9°C° 0 mm 7 mps 774 mmHg 59%
    09:00 -11°C° 0 mm 8 mps 775 mmHg 55%
    10:00 -10°C° 0 mm 8 mps 775 mmHg 48%
    11:00 -10°C° 0 mm 8 mps 776 mmHg 42%
    12:00 -10°C° 0 mm 8 mps 776 mmHg 36%
    13:00 -9°C° 0 mm 7 mps 776 mmHg 33%
    14:00 -9°C° 0 mm 7 mps 777 mmHg 31%
    15:00 -9°C° 0 mm 7 mps 777 mmHg 29%
    16:00 -11°C° 0 mm 7 mps 777 mmHg 30%
    17:00 -12°C° 0 mm 7 mps 778 mmHg 32%
    18:00 -11°C° 0 mm 6 mps 779 mmHg 34%
    19:00 -12°C° 0 mm 6 mps 779 mmHg 35%
    20:00 -12°C° 0 mm 6 mps 780 mmHg 37%
    21:00 -12°C° 0 mm 6 mps 780 mmHg 38%
    22:00 -12°C° 0 mm 5 mps 780 mmHg 40%
    23:00 -13°C° 0 mm 5 mps 781 mmHg 43%

    21 November, Thursday

    Time Temperature Precipitation Wind Pressure Humidity
    00:00 -12°C° 0 mm 4 mps 781 mmHg 45%
    01:00 -12°C° 0 mm 4 mps 781 mmHg 48%
    02:00 -12°C° 0 mm 4 mps 781 mmHg 50%
    03:00 -14°C° 0 mm 4 mps 781 mmHg 53%
    04:00 -14°C° 0 mm 4 mps 782 mmHg 55%
    05:00 -14°C° 0 mm 4 mps 782 mmHg 57%
    06:00 -14°C° 0 mm 4 mps 782 mmHg 59%
    07:00 -14°C° 0 mm 4 mps 782 mmHg 57%
    08:00 -12°C° 0 mm 4 mps 783 mmHg 54%
    09:00 -12°C° 0 mm 4 mps 783 mmHg 52%
    10:00 -10°C° 0 mm 4 mps 783 mmHg 47%
    11:00 -9°C° 0 mm 4 mps 783 mmHg 41%
    12:00 -8°C° 0 mm 4 mps 783 mmHg 36%
    13:00 -7°C° 0 mm 3 mps 783 mmHg 35%
    14:00 -7°C° 0 mm 3 mps 782 mmHg 35%
    15:00 -6°C° 0 mm 3 mps 782 mmHg 34%
    16:00 -7°C° 0 mm 3 mps 782 mmHg 37%
    17:00 -7°C° 0 mm 2 mps 782 mmHg 40%
    18:00 -8°C° 0 mm 2 mps 782 mmHg 43%
    19:00 -8°C° 0 mm 2 mps 782 mmHg 45%
    20:00 -8°C° 0 mm 2 mps 782 mmHg 46%
    21:00 -9°C° 0 mm 2 mps 782 mmHg 48%
    22:00 -9°C° 0 mm 2 mps 782 mmHg 49%
    23:00 -8°C° 0 mm 1 mps 782 mmHg 50%

    22 November, Friday

    Time Temperature Precipitation Wind Pressure Humidity
    00:00 -9°C° 0 mm 1 mps 782 mmHg 51%
    01:00 -9°C° 0 mm 1 mps 782 mmHg 52%
    02:00 -9°C° 0 mm 1 mps 782 mmHg 53%
    03:00 -9°C° 0 mm 1 mps 782 mmHg 53%
    04:00 -9°C° 0 mm 1 mps 782 mmHg 52%
    05:00 -9°C° 0 mm 1 mps 782 mmHg 51%
    06:00 -9°C° 0 mm 1 mps 782 mmHg 50%
    07:00 -8°C° 0 mm 1 mps 782 mmHg 46%
    08:00 -7°C° 0 mm 1 mps 782 mmHg 42%
    09:00 -6°C° 0 mm 1 mps 782 mmHg 37%
    10:00 -4°C° 0 mm 1 mps 782 mmHg 34%
    11:00 -3°C° 0 mm 1 mps 782 mmHg 31%
    12:00 -2°C° 0 mm 1 mps 782 mmHg 28%
    13:00 -2°C° 0 mm 1 mps 782 mmHg 28%
    14:00 -2°C° 0 mm 1 mps 781 mmHg 29%
    15:00 -2°C° 0 mm 1 mps 781 mmHg 29%
    16:00 -3°C° 0 mm 1 mps 781 mmHg 32%
    17:00 -4°C° 0 mm 1 mps 781 mmHg 35%
    18:00 -6°C° 0 mm 1 mps 781 mmHg 37%
    19:00 -6°C° 0 mm 1 mps 781 mmHg 38%
    20:00 -7°C° 0 mm 1 mps 781 mmHg 39%
    21:00 -7°C° 0 mm 1 mps 781 mmHg 39%
    22:00 -7°C° 0 mm 1 mps 781 mmHg 41%
    23:00 -7°C° 0 mm 1 mps 781 mmHg 42%
    Show more